Home   Weather   Tacoma   Past weeks

Flag for USA Past Weather in Tacoma, Washington, USA — Yesterday and Last 2 Weeks

Now
65 °F

Sunny.


Feels Like: 65 °F
Forecast: 52 / 75 °F
Wind: 3 mph from North

Location: Tacoma Narrows Airport

Current Time: Aug 20, 2017 at 12:30:51 pm

Latest Report: Aug 20, 2017 at 11:53 am


Visibility: 10 mi

Pressure: 30.15 "Hg

Humidity: 56%

Dew Point: 49 °F

Location of TacomaLocation

Past Weather in Tacoma — Graph

°F

Tacoma Temperature Yesterday

Maximum temperature yesterday: 74 °F (at 3:53 pm)
Minimum temperature yesterday: 58 °F (at 6:06 am)
Average temperature yesterday: 64 °F

High & Low Weather Summary for the Past Weeks

 TemperatureHumidityPressure
High86 °F (Aug 9, 3:53 pm)100% (Aug 6, 6:53 am)30.22 "Hg (Aug 6, 6:53 am)
Low51 °F (Aug 15, 5:53 am)38% (Aug 10, 5:53 pm)29.87 "Hg (Aug 5, 6:53 pm)
Average64 °F75%30.01 "Hg
* Reported Aug 5 10:53 am — Aug 20 10:53 am, Tacoma. Weather by CustomWeather, © 2017

Note: Actual official high and low records may vary slightly from our data, if they occured in-between our weather recording intervals... More about our weather records

Advertising

Tacoma Weather History for the Previous 24 Hours

Scroll right to see more
 ConditionsComfort  
Time TempWeatherWind HumidityBarometerVisibility
10:53 am
Sun, Aug 20
62 °FSunny.6 mph67%30.16 "Hg10 mi
9:53 am59 °FSunny.No wind75%30.18 "Hg10 mi
8:53 am56 °FSunny.3 mph84%30.17 "Hg10 mi
7:53 am56 °FSunny.No wind81%30.17 "Hg10 mi
6:53 am54 °FSunny.No wind86%30.16 "Hg10 mi
5:53 am52 °FClear.3 mph93%30.15 "Hg10 mi
4:53 am53 °FClear.No wind89%30.15 "Hg10 mi
3:53 am55 °FClear.No wind87%30.16 "Hg10 mi
2:53 am55 °FClear.5 mph83%30.17 "Hg10 mi
1:53 am57 °FClear.5 mph78%30.17 "Hg10 mi
12:53 am57 °FClear.8 mph78%30.16 "Hg10 mi
11:53 pm
Sat, Aug 19
59 °FClear.5 mph72%30.17 "Hg10 mi
10:53 pm61 °FClear.8 mph67%30.17 "Hg10 mi
9:53 pm61 °FClear.6 mph65%30.16 "Hg10 mi
8:53 pm64 °FClear.5 mph58%30.15 "Hg10 mi
7:53 pm67 °FPassing clouds.7 mph53%30.14 "Hg10 mi
6:53 pm71 °FScattered clouds.6 mph49%30.13 "Hg10 mi
5:53 pm74 °FSunny.6 mph45%30.14 "Hg10 mi
4:53 pm72 °FScattered clouds.6 mph46%30.15 "Hg10 mi
3:53 pm74 °FScattered clouds.3 mph45%30.16 "Hg10 mi
2:53 pm72 °FScattered clouds.6 mph49%30.17 "Hg10 mi
1:53 pm71 °FScattered clouds.8 mph51%30.19 "Hg10 mi
12:53 pm69 °FScattered clouds.3 mph55%30.20 "Hg10 mi
Weather by CustomWeather, © 2017

See weather overviewHow to use our weather pages